Home > Time Zones > World Clock > Weather > Egypt > Cairo > Past weeks

Flag for Egypt Weather past 2 weeks in Cairo, Egypt

Now
63 °F

Fog.


Feels Like: 63 °F
Forecast: 67 / 94 °F
Wind: 7 mph from North

Location: Cairo Airport


UV Index: 7 (High)

Visibility: 1 mi


Pressure: 29.86 "Hg

Humidity: 94%

Dew point: 61 °F

Location of CairoLocation

Historic Weather in Cairo

°F

Cairo temperature yesterday

Maximum temperature yesterday: 82 °F (at 1:00 PM)
Minimum temperature yesterday: 63 °F (at 5:00 AM)
Average temperature yesterday: 72 °F

Past Weeks' High & Low Weather Summary

 TemperatureHumidityPressure
High91 °F (Apr 6, 3:00 PM)94% (Apr 17, 2:30 AM)30.12 "Hg (Apr 17, 2:30 AM)
Low54 °F (Apr 3, 5:30 AM)6% (Apr 6, 3:30 PM)29.74 "Hg (Apr 15, 3:00 AM)
Average70 °F48%29.97 "Hg
* Reported Apr 2 2:00 AM — Apr 17 2:30 AM, Cairo, Weather by CustomWeather, © 2014

Note: Actual official high and low records may vary slightly from our data, if they occured in-between our weather recording intervals... More about our weather records

Advertising

Historic Weather Conditions — Data for Previous 24 hours

 ConditionsComfort  
Time TempWeatherWind HumidityBarometerVisibility
2:30 AM
Apr 17
63 °FFog.2 mph94%29.89 "Hg2 mi
2:00 AM64 °FFog.3 mph88%29.89 "Hg2 mi
1:30 AM64 °FClear.5 mph88%29.89 "Hg4 mi
1:00 AM64 °FClear.6 mph88%29.89 "Hg4 mi
12:30 AM64 °FClear.7 mph83%29.89 "Hg4 mi
12:00 AM66 °FClear.7 mph78%29.89 "Hg10 mi
11:00 PM
Apr 16
66 °FClear.8 mph78%29.89 "Hg10 mi
10:30 PM68 °FClear.9 mph73%29.89 "Hg10 mi
10:00 PM68 °FClear.9 mph73%29.89 "Hg10 mi
9:30 PM68 °FClear.13 mph73%29.89 "Hg10 mi
9:00 PM68 °FClear.14 mph73%29.89 "Hg10 mi
8:30 PM70 °FClear.14 mph73%29.89 "Hg10 mi
8:00 PM72 °FClear.14 mph69%29.86 "Hg10 mi
7:30 PM72 °FClear.14 mph69%29.86 "Hg10 mi
7:00 PM77 °FClear.9 mph47%29.83 "Hg10 mi
6:30 PM79 °FClear.10 mph32%29.83 "Hg10 mi
6:00 PM79 °FSunny.10 mph30%29.83 "Hg10 mi
5:30 PM81 °FSunny.9 mph30%29.83 "Hg10 mi
5:00 PM81 °FSunny.7 mph30%29.83 "Hg10 mi
4:30 PM81 °FSunny.8 mph28%29.80 "Hg10 mi
4:00 PM82 °FSunny.9 mph26%29.83 "Hg10 mi
3:30 PM81 °FSunny.8 mph30%29.83 "Hg10 mi
3:00 PM82 °FClear.7 mph28%29.83 "Hg4 mi
2:30 PM82 °FClear.8 mph28%29.83 "Hg4 mi
2:00 PM81 °FClear.7 mph30%29.83 "Hg4 mi
1:30 PM81 °FClear.7 mph32%29.83 "Hg4 mi
1:00 PM82 °FClear.2 mph32%29.86 "Hg4 mi
12:30 PM81 °FClear.5 mph30%29.86 "Hg4 mi
12:00 PM81 °FClear.5 mph34%29.86 "Hg4 mi
11:30 AM79 °FClear.2 mph37%29.89 "Hg4 mi
11:00 AM73 °FHaze.2 mph53%29.89 "Hg2 mi
10:30 AM73 °FHaze.6 mph53%29.89 "Hg2 mi
10:00 AM72 °FSmoke.No wind57%29.89 "Hg2 mi
9:30 AM70 °FHaze.No wind64%29.92 "Hg1 mi
9:00 AM68 °FFog.No wind69%29.92 "Hg1 mi
8:30 AM66 °FFog.5 mph73%29.92 "Hg1 mi
8:00 AM64 °FFog.7 mph78%29.92 "Hg1 mi
7:30 AM64 °FFog.6 mph78%29.92 "Hg1 mi
7:00 AM63 °FFog.No wind83%29.92 "Hg1 mi
6:30 AM63 °FFog.No wind83%29.89 "Hg1 mi
6:00 AM63 °FFog.5 mph77%29.89 "Hg1 mi
5:30 AM63 °FFog.5 mph77%29.89 "Hg1 mi
5:00 AM63 °FHaze.5 mph77%29.89 "Hg1 mi
4:30 AM64 °FHaze.No wind73%29.89 "Hg2 mi
4:00 AM64 °FHaze.No wind68%29.89 "Hg2 mi
3:30 AM64 °FHaze.No wind68%29.86 "Hg2 mi
3:00 AM66 °FHaze.No wind68%29.86 "Hg2 mi
Weather by CustomWeather, © 2014

See weather overview